User: anonymous   Login
Location: Unspecified
(0.0000°N, 0.0000°E)
Time: 23:51:07
(UTC+00:00)
Language:

CLOUDSAT - Orbit

View from above orbital plane
View from above orbital plane
View from above satellite
View from above satellite

Ground track
Ground track

The orbit data is extracted from the following two-line orbital elements,

1 29107U 06016A   14297.42830437  .00000815  00000-0  19100-3 0  8140
2 29107 098.2096 239.3267 0001349 077.8244 282.3087 14.57096723451651
Epoch (UTC): 24 October 2014 10:16:45
Eccentricity: 0.0001349
inclination: 98.2096°
perigee height: 701 km
apogee height: 703 km
right ascension of ascending node: 239.3267°
argument of perigee: 77.8244°
revolutions per day: 14.57096723
mean anomaly at epoch: 282.3087°
orbit number at epoch: 45165

The dashed part of the orbit path shows where the satellite is in the earth's shadow,  

DLR